Weather History for KCNI - August, 2013

Change the Weather History Date:

Sunday, August 18, 2013

  Actual Average (KGVL) Record (KGVL)
Temperature  
Mean Temperature 68 °F 78 °F  
Max Temperature 73 °F 87 °F 100 °F (1954)
Min Temperature 64 °F 69 °F 60 °F (1958)
Cooling Degree Days 4 13  
Month to date cooling degree days 246  
Year to date cooling degree days 1168  
Since 1 June cooling degree days 993  
Growing Degree Days 18 (Base 50)    
Moisture  
Dew Point 64 °F    
Average Humidity 87    
Maximum Humidity 94    
Minimum Humidity 69    
Precipitation  
Precipitation 0.00 in 0.14 in 2.76 in (1939)
Month to date precipitation 2.82  
Year to date precipitation 34.64  
Sea Level Pressure  
Sea Level Pressure 30.18 in    
Wind  
Wind Speed 4 mph (ENE)    
Max Wind Speed 8 mph    
Max Gust Speed -    
Visibility 8 miles    
Events Rain    
T = Trace of Precipitation, MM = Missing Value Source: NWS Daily Summary

Daily Weather History Graph

Daily Weather History Graph

Search for Another Location

Airport or City:

Trip Planner

Search our weather history database for the weather conditions in past years. The results will help you decide how hot, cold, wet, or windy it might be!

Date:

Astronomy

Aug. 18, 2013 Rise Set
Actual Time 7:01 AM EDT 8:21 PM EDT
Civil Twilight 6:34 AM EDT 8:47 PM EDT
Nautical Twilight 6:03 AM EDT 9:18 PM EDT
Astronomical Twilight 5:30 AM EDT 9:51 PM EDT
Moon 6:24 PM EDT (8/18) 4:13 AM EDT (8/18)
Length of Visible Light 14h 12m
Length of Day
13h 20m
Waxing Gibbous, 92% of the Moon is Illuminated
Aug 18
Waxing Gibbous
Aug 20
Full
Aug 28
Last Quarter
Sep 5
New
Sep 12
First Quarter

Hourly Weather History & Observations

Time (EDT) Temp. Dew Point Humidity Pressure Visibility Wind Dir Wind Speed Gust Speed Precip Events Conditions
12:15 AM 64.4 °F 62.6 °F 94% 30.18 in 7.0 mi East 3.5 mph - N/A   Overcast
12:35 AM 64.4 °F 62.6 °F 94% 30.18 in 3.0 mi East 5.8 mph - N/A   Overcast
12:55 AM 64.4 °F 62.6 °F 94% 30.17 in 2.0 mi ENE 6.9 mph - N/A   Light Drizzle
1:15 AM 64.4 °F 62.6 °F 94% 30.16 in 3.0 mi ENE 3.5 mph - N/A   Overcast
1:35 AM 64.4 °F 62.6 °F 94% 30.15 in 5.0 mi East 4.6 mph - N/A   Overcast
1:55 AM 64.4 °F 62.6 °F 94% 30.16 in 10.0 mi ENE 4.6 mph - N/A   Overcast
2:15 AM 64.4 °F 62.6 °F 94% 30.15 in 10.0 mi East 4.6 mph - N/A   Overcast
2:35 AM 64.4 °F 62.6 °F 94% 30.14 in 10.0 mi ENE 3.5 mph - N/A   Overcast
2:55 AM 64.4 °F 62.6 °F 94% 30.14 in 10.0 mi ENE 3.5 mph - N/A   Overcast
3:15 AM 64.4 °F 62.6 °F 94% 30.15 in 7.0 mi East 3.5 mph - N/A   Overcast
3:35 AM 64.4 °F 62.6 °F 94% 30.15 in 4.0 mi ENE 4.6 mph - N/A Rain Rain
3:55 AM 64.4 °F 62.6 °F 94% 30.15 in 4.0 mi ENE 5.8 mph - N/A Rain Light Rain
4:15 AM 64.4 °F 62.6 °F 94% 30.14 in 2.0 mi Calm Calm - N/A   Drizzle
4:35 AM 64.4 °F 62.6 °F 94% 30.14 in 4.0 mi ENE 5.8 mph - N/A Rain Rain
4:55 AM 64.4 °F 62.6 °F 94% 30.14 in 5.0 mi Calm Calm - N/A   Overcast
5:15 AM 64.4 °F 62.6 °F 94% 30.14 in 4.0 mi ENE 5.8 mph - N/A   Overcast
5:35 AM 64.4 °F 62.6 °F 94% 30.16 in 5.0 mi Calm Calm - N/A Rain Light Rain
5:55 AM 64.4 °F 62.6 °F 94% 30.16 in 10.0 mi East 5.8 mph - N/A Rain Light Rain
6:15 AM 64.4 °F 62.6 °F 94% 30.17 in 7.0 mi ENE 4.6 mph - N/A Rain Light Rain
6:35 AM 64.4 °F 62.6 °F 94% 30.17 in 7.0 mi ENE 3.5 mph - N/A Rain Rain
6:55 AM 64.4 °F 62.6 °F 94% 30.17 in 10.0 mi East 4.6 mph - N/A Rain Rain
7:15 AM 64.4 °F 62.6 °F 94% 30.18 in 10.0 mi East 3.5 mph - N/A   Drizzle
7:35 AM 64.4 °F 62.6 °F 94% 30.18 in 10.0 mi East 3.5 mph - N/A   Drizzle
7:55 AM 64.4 °F 62.6 °F 94% 30.19 in 10.0 mi ENE 5.8 mph - N/A   Overcast
8:15 AM 64.4 °F 62.6 °F 94% 30.20 in 7.0 mi East 6.9 mph - N/A Rain Light Rain
8:35 AM 64.4 °F 62.6 °F 94% 30.21 in 4.0 mi East 3.5 mph - N/A   Overcast
8:55 AM 64.4 °F 62.6 °F 94% 30.21 in 1.8 mi Calm Calm - N/A   Overcast
9:15 AM 64.4 °F 62.6 °F 94% 30.22 in 1.2 mi Calm Calm - N/A   Overcast
9:35 AM 66.2 °F 62.6 °F 88% 30.22 in 1.0 mi ENE 4.6 mph - N/A   Light Drizzle
9:55 AM 66.2 °F 64.4 °F 94% 30.22 in 1.8 mi ENE 4.6 mph - N/A   Overcast
10:15 AM 66.2 °F 64.4 °F 94% 30.22 in 4.0 mi ENE 4.6 mph - N/A   Overcast
10:35 AM 68.0 °F 64.4 °F 88% 30.21 in 7.0 mi ENE 5.8 mph - N/A   Overcast
10:55 AM 68.0 °F 64.4 °F 88% 30.21 in 10.0 mi ENE 3.5 mph - N/A   Overcast
11:15 AM 68.0 °F 66.2 °F 94% 30.22 in 10.0 mi ENE 3.5 mph - N/A   Overcast
11:35 AM 68.0 °F 64.4 °F 88% 30.23 in 10.0 mi ESE 5.8 mph - N/A   Overcast
11:55 AM 69.8 °F 64.4 °F 83% 30.22 in 10.0 mi East 4.6 mph - N/A   Overcast
12:15 PM 71.6 °F 64.4 °F 78% 30.22 in 10.0 mi ENE 6.9 mph - N/A   Overcast
12:35 PM 73.4 °F 64.4 °F 73% 30.21 in 10.0 mi ENE 6.9 mph - N/A   Mostly Cloudy
12:55 PM 73.4 °F 62.6 °F 69% 30.21 in 10.0 mi ENE 4.6 mph - N/A   Mostly Cloudy
1:15 PM 73.4 °F 62.6 °F 69% 30.21 in 10.0 mi East 5.8 mph - N/A   Overcast
1:35 PM 73.4 °F 62.6 °F 69% 30.20 in 10.0 mi ENE 5.8 mph - N/A   Overcast
1:55 PM 73.4 °F 62.6 °F 69% 30.21 in 7.0 mi ESE 3.5 mph - N/A Rain Rain
2:15 PM 71.6 °F 64.4 °F 78% 30.21 in 3.0 mi Calm Calm - N/A Rain Rain
2:35 PM 71.6 °F 68.0 °F 88% 30.21 in 7.0 mi Calm Calm - N/A   Overcast
2:55 PM 71.6 °F 68.0 °F 88% 30.20 in 10.0 mi East 4.6 mph - N/A   Mostly Cloudy
3:15 PM 71.6 °F 68.0 °F 88% 30.20 in 10.0 mi ENE 5.8 mph - N/A   Mostly Cloudy
3:35 PM 71.6 °F 68.0 °F 88% 30.20 in 10.0 mi East 4.6 mph - N/A Rain Light Rain
3:55 PM 71.6 °F 68.0 °F 88% 30.19 in 10.0 mi East 5.8 mph - N/A   Light Drizzle
4:15 PM 71.6 °F 64.4 °F 78% 30.18 in 10.0 mi East 5.8 mph - N/A   Scattered Clouds
4:35 PM 71.6 °F 64.4 °F 78% 30.17 in 10.0 mi ENE 4.6 mph - N/A Rain Light Rain
4:55 PM 73.4 °F 64.4 °F 73% 30.17 in 10.0 mi NE 4.6 mph - N/A   Scattered Clouds
5:15 PM 73.4 °F 64.4 °F 73% 30.16 in 10.0 mi East 4.6 mph - N/A   Mostly Cloudy
5:35 PM 73.4 °F 64.4 °F 73% 30.17 in 10.0 mi ESE 4.6 mph - N/A   Mostly Cloudy
5:55 PM 73.4 °F 64.4 °F 73% 30.16 in 10.0 mi East 3.5 mph - N/A   Mostly Cloudy
6:15 PM 73.4 °F 64.4 °F 73% 30.16 in 10.0 mi Calm Calm - N/A   Scattered Clouds
6:35 PM 73.4 °F 62.6 °F 69% 30.17 in 10.0 mi Calm Calm - N/A   Scattered Clouds
6:55 PM 73.4 °F 64.4 °F 73% 30.17 in 10.0 mi ENE 4.6 mph - N/A   Mostly Cloudy
7:15 PM 71.6 °F 64.4 °F 78% 30.17 in 10.0 mi East 3.5 mph - N/A   Mostly Cloudy
7:35 PM 71.6 °F 64.4 °F 78% 30.17 in 10.0 mi Calm Calm - N/A   Overcast
7:55 PM 71.6 °F 64.4 °F 78% 30.17 in 10.0 mi ENE 3.5 mph - N/A   Mostly Cloudy
8:15 PM 71.6 °F 66.2 °F 83% 30.17 in 10.0 mi Calm Calm - N/A Rain Light Rain
8:35 PM 69.8 °F 68.0 °F 94% 30.19 in 10.0 mi Calm Calm - N/A   Light Drizzle
8:55 PM 69.8 °F 68.0 °F 94% 30.18 in 10.0 mi East 4.6 mph - N/A Rain Light Rain
9:15 PM 69.8 °F 66.2 °F 88% 30.18 in 5.0 mi ENE 3.5 mph - N/A Rain Rain
9:35 PM 69.8 °F 68.0 °F 94% 30.18 in 5.0 mi ENE 4.6 mph - N/A Rain Rain
9:55 PM 69.8 °F 68.0 °F 94% 30.19 in 7.0 mi Calm Calm - N/A Rain Light Rain
10:15 PM 69.8 °F 68.0 °F 94% 30.19 in 7.0 mi ENE 3.5 mph - N/A Rain Rain
10:35 PM 69.8 °F 66.2 °F 88% 30.19 in 7.0 mi ENE 4.6 mph - N/A Rain Light Rain
10:55 PM 69.8 °F 66.2 °F 88% 30.19 in 10.0 mi ENE 4.6 mph - N/A   Scattered Clouds
11:15 PM 69.8 °F 66.2 °F 88% 30.20 in 7.0 mi ENE 3.5 mph - N/A   Mostly Cloudy
11:35 PM 69.8 °F 66.2 °F 88% 30.19 in 10.0 mi ENE 6.9 mph - N/A   Overcast
11:55 PM 69.8 °F 66.2 °F 88% 30.18 in 10.0 mi ENE 8.1 mph - N/A Rain Light Rain